Location: Black Swamp Observatory
(41.3920°N, 84.1250°W)
Time: 02:54:52
(UTC-04:00)

Tiangong - Visible Passes

Search period start: 15 June 2024 00:00
Search period end: 25 June 2024 00:00
Orbit: 380 x 385 km, 41.5° (Epoch: 14 June)

Date Brightness Start Highest point End Pass type
(mag) Time Alt. Az. Time Alt. Az. Time Alt. Az.
15 Jun -0.9 22:20:32 10° W 22:23:20 29° SSW 22:24:59 18° SSE visible
16 Jun 0.4 22:58:21 10° SW 22:59:17 11° SW 22:59:22 11° SSW visible
17 Jun -0.1 21:56:44 10° WSW 21:59:02 18° SSW 22:01:19 10° SSE visible
